Wind_Speed
34 33 32 33 33 33 32 32 32 31 31 31 31 32 31 30 30 30 29 28 27 26 26 26 25 25 25 24 24 23 23 23 22 22 22 22 21 21 21 21 21 21 21
35 35 34 34 34 34 34 34 34 33 32 33 33 33 32 32 32 31 30 30 29 28 28 27 27 26 26 26 26 25 24 24 24 24 23 23 23 23 23 23 23 23 23
37 37 36 36 35 35 35 35 35 35 35 35 35 35 34 34 33 33 32 32 31 30 30 30 29 28 27 27 27 26 25 25 25 25 25 25 25 25 25 25 25 24 25
39 39 38 38 37 36 36 36 36 36 37 37 37 37 36 36 36 35 35 34 33 32 32 32 31 31 30 29 29 27 27 27 27 27 26 26 27 27 27 27 26 26 27
41 40 40 40 40 39 38 38 38 38 38 38 38 39 39 39 38 38 36 36 35 35 34 34 34 33 33 32 32 30 30 30 29 28 28 28 29 29 29 29 29 29 29
43 43 43 42 42 41 40 40 40 40 40 40 40 40 41 40 39 39 38 38 37 37 37 37 36 35 34 35 34 34 34 33 32 32 31 31 31 31 31 31 31 31 31
45 45 45 44 44 43 43 43 42 42 42 42 42 42 43 42 41 40 40 40 40 39 39 38 37 37 37 36 37 37 37 36 35 34 34 33 33 33 33 33 33 33 33
46 47 47 47 46 46 46 46 45 44 44 43 43 43 43 43 43 42 42 42 42 42 42 41 40 40 39 39 39 39 38 38 37 36 36 35 35 35 34 35 35 35 35
48 48 48 47 47 47 46 47 46 45 45 45 44 44 44 43 43 43 43 43 42 42 42 42 42 42 42 42 42 41 40 40 39 39 38 38 37 37 37 37 36 37 37
49 49 49 48 49 49 48 47 47 46 46 46 46 45 44 44 44 44 44 44 44 43 43 43 43 44 44 44 43 43 43 42 42 42 41 41 40 39 39 39 39 38 38
49 49 50 49 50 51 50 49 49 48 48 48 47 47 46 46 46 45 45 46 46 45 45 45 45 45 45 45 45 45 44 44 44 43 43 43 42 41 41 41 40 40 40
49 49 50 51 50 50 50 50 50 51 50 50 49 49 48 48 48 48 48 47 47 47 46 45 46 46 46 47 47 47 46 46 45 45 45 45 44 43 42 42 42 42 42
50 50 50 52 52 52 52 51 51 51 52 52 51 50 49 49 49 49 49 48 48 47 47 47 47 47 47 48 48 48 48 48 47 46 46 46 46 45 45 44 44 44 44
51 51 52 53 53 53 53 53 52 51 52 52 52 51 51 51 51 50 50 49 49 48 47 47 48 49 49 48 48 48 48 48 48 48 48 48 47 47 47 47 46 46 46
52 52 52 52 54 54 53 54 53 53 53 53 53 52 51 51 51 51 51 50 50 49 48 48 48 48 49 49 48 48 48 48 49 49 49 49 48 48 48 48 47 47 47
53 53 52 53 54 53 54 54 55 55 54 54 54 53 52 52 52 52 51 51 51 50 49 49 49 48 48 48 49 50 49 48 49 49 49 49 49 48 48 48 48 48 49
53 53 53 53 53 53 53 54 54 54 53 54 55 54 53 52 52 52 52 51 51 51 51 50 50 49 48 49 50 50 50 49 48 48 49 48 48 48 48 48 49 49 49
52 52 52 52 52 52 53 53 53 53 52 53 54 54 54 53 52 52 52 52 52 52 52 51 51 50 50 50 50 50 50 51 51 51 50 50 49 49 49 49 48 48 49
49 50 50 51 52 52 53 53 54 53 53 53 53 53 54 53 53 53 53 53 53 53 53 52 52 51 51 51 51 51 51 51 51 51 51 51 51 50 50 49 49 49 48
48 49 50 51 52 52 53 53 53 53 53 53 53 53 54 54 54 54 54 54 54 54 54 54 53 52 52 52 52 52 53 53 52 52 52 52 51 51 51 51 50 50 50
48 48 49 50 51 52 52 53 54 54 53 53 53 53 53 54 54 54 54 54 55 55 55 55 55 54 53 54 54 55 55 54 54 54 53 53 53 53 52 51 51 52 52
47 48 49 50 50 50 51 53 54 54 54 54 54 54 53 54 55 55 55 55 55 55 55 55 56 55 55 55 55 56 55 55 54 54 54 54 54 54 53 53 53 53 54
47 47 47 48 48 49 51 53 54 54 54 54 53 54 54 54 55 56 56 56 55 55 56 55 55 55 55 56 56 56 56 55 55 55 55 55 55 55 55 55 55 55 55
48 48 48 47 47 47 48 49 51 52 53 53 52 53 53 54 55 56 56 56 55 54 55 55 54 54 54 55 55 55 56 56 56 56 56 56 56 56 56 56 56 56 57
45 46 47 47 47 47 47 47 49 50 50 50 51 52 52 52 52 53 54 55 54 54 54 54 54 54 53 53 54 54 55 55 55 55 56 56 55 56 56 57 58 58 58
43 43 44 45 46 46 47 47 47 48 49 49 49 49 49 49 49 51 52 53 53 53 54 54 54 54 53 53 54 53 54 54 54 54 55 55 55 56 56 57 57 58 57
Wind_Direction
247 247 249 250 251 252 253 254 255 255 255 255 254 253 252 252 253 254 254 255 256 257 257 259 259 260 262 263 263 265 266 266 269 270 271 271 272 273 275 277 280 282 282
249 250 250 250 252 252 254 254 254 254 255 255 255 253 252 252 253 254 253 254 255 256 257 258 259 259 261 263 263 263 265 267 269 269 270 271 272 273 275 275 278 279 281
249 251 251 251 253 254 254 254 254 254 255 255 254 252 251 251 251 251 252 253 254 255 256 257 258 258 260 262 262 261 263 266 268 269 270 272 273 273 274 274 275 276 277
249 250 251 251 253 254 255 254 255 256 256 255 254 253 252 251 252 251 252 253 253 255 255 256 258 258 260 261 261 261 263 265 267 268 269 271 273 274 274 274 274 275 275
250 250 250 251 253 254 255 255 254 256 256 256 254 253 251 250 252 252 252 253 255 255 255 256 257 259 260 262 262 263 264 265 266 268 269 271 273 274 275 274 274 275 275
249 250 251 252 253 254 255 256 255 255 255 254 254 253 252 251 251 251 252 254 255 255 255 256 258 259 260 262 263 264 265 265 266 268 269 270 272 274 275 274 273 274 275
249 249 250 252 253 254 255 256 256 256 256 255 255 253 252 251 251 252 253 254 255 255 256 257 258 259 260 261 263 264 265 266 266 267 268 270 272 273 274 274 274 273 274
249 249 251 252 252 254 256 257 256 256 256 256 255 254 252 252 252 253 254 255 256 256 256 256 258 259 261 261 263 264 265 266 266 267 268 270 271 272 273 273 274 273 274
250 250 252 253 253 254 255 256 256 256 255 255 255 254 252 252 253 253 255 255 255 257 257 257 258 258 259 261 261 262 264 265 266 267 269 270 271 272 273 273 274 274 274
252 252 252 254 254 254 255 255 254 256 255 254 253 253 252 253 254 254 254 254 255 256 257 258 259 259 260 261 261 262 263 264 265 266 268 269 270 271 272 273 274 275 275
253 253 253 253 253 254 255 255 254 255 254 253 253 253 253 253 253 253 254 254 255 256 258 259 260 260 261 262 262 262 263 263 264 266 267 268 269 271 272 273 274 274 275
253 253 253 252 253 255 256 255 254 255 253 252 252 253 253 253 253 253 254 255 256 257 258 260 260 260 260 261 262 263 263 264 264 266 266 267 269 270 271 272 273 273 273
253 252 254 254 255 256 255 255 254 254 253 253 253 253 254 254 254 254 254 255 256 257 258 259 260 261 260 261 262 262 263 264 265 265 266 268 269 270 271 272 272 273 272
253 253 255 256 255 256 255 255 254 254 254 253 254 255 256 256 255 255 255 255 256 257 258 259 260 260 260 261 262 262 263 264 265 266 266 267 269 270 271 272 272 272 272
253 254 255 255 255 255 255 254 254 255 254 253 253 254 255 255 256 257 257 257 257 258 257 258 259 260 261 261 262 263 264 265 266 266 267 268 269 270 271 271 271 271 272
254 254 254 255 255 255 255 254 254 254 254 253 253 253 254 254 255 257 258 258 258 258 258 258 259 259 260 261 262 263 264 266 266 267 268 269 269 269 270 270 270 271 272
254 254 254 255 253 254 254 254 254 254 254 253 252 252 252 253 255 256 257 257 257 258 259 259 259 260 260 261 261 263 264 264 265 266 268 269 269 270 271 271 271 271 272
255 255 254 253 252 252 253 254 254 253 253 252 252 251 252 254 255 256 257 257 257 258 259 260 260 261 261 262 262 263 264 265 266 267 268 268 269 270 270 271 271 272 272
254 254 253 253 252 253 254 254 253 252 252 252 252 252 253 254 255 256 257 258 258 259 259 260 260 261 261 261 262 263 264 266 268 268 269 269 269 269 270 270 271 272 272
254 254 254 254 254 254 254 254 253 252 252 252 253 253 253 254 255 256 258 259 259 260 260 260 260 261 261 261 261 262 264 266 266 267 268 269 269 269 270 271 271 272 272
254 254 254 255 255 255 254 253 252 252 252 253 253 254 254 255 256 257 258 259 260 260 260 261 261 261 262 262 262 263 263 264 265 266 266 267 268 269 270 271 271 272 273
255 256 256 256 255 255 254 252 252 252 253 253 254 255 255 256 256 257 258 259 259 260 260 261 261 261 262 263 263 264 264 264 264 265 266 266 268 269 270 271 272 272 273
256 256 257 256 256 256 255 253 252 253 253 254 255 255 256 256 257 257 258 259 260 260 260 261 261 262 262 262 263 263 263 263 264 265 265 267 268 269 269 270 271 272 273
257 256 256 257 256 255 254 254 253 252 253 254 254 255 256 256 257 257 258 258 259 260 260 261 261 262 262 262 263 263 263 264 265 266 267 267 268 269 270 270 271 272 272
258 257 256 256 256 256 255 255 254 253 254 254 254 256 257 257 258 257 258 259 259 260 260 260 261 261 262 263 264 264 265 266 266 267 268 268 269 269 269 270 271 271 271
259 258 258 257 256 255 254 255 255 255 254 254 255 256 257 257 259 260 260 260 259 260 260 261 261 262 263 264 265 266 267 267 268 268 268 269 269 269 270 270 271 271 271
Height
5784 5786 5788 5790 5792 5795 5797 5799 5801 5802 5804 5806 5807 5809 5811 5813 5815 5817 5818 5820 5821 5823 5824 5825 5826 5827 5827 5828 5828 5829 5830 5830 5830 5831 5831 5831 5831 5831 5831 5831 5830 5830 5829
5776 5779 5781 5783 5785 5787 5789 5791 5793 5795 5797 5798 5800 5802 5804 5806 5808 5810 5812 5813 5815 5816 5818 5819 5820 5821 5822 5822 5823 5823 5824 5825 5825 5825 5826 5826 5826 5826 5826 5826 5825 5825 5824
5769 5771 5773 5775 5777 5779 5781 5783 5785 5787 5789 5790 5792 5794 5796 5798 5800 5803 5805 5806 5808 5810 5811 5812 5813 5814 5815 5816 5817 5817 5818 5819 5819 5820 5820 5820 5820 5820 5820 5820 5820 5819 5818
5760 5763 5765 5767 5769 5771 5773 5775 5777 5778 5780 5781 5783 5785 5787 5790 5792 5795 5797 5799 5801 5802 5804 5805 5807 5808 5809 5809 5810 5811 5812 5812 5813 5813 5814 5814 5814 5814 5814 5814 5813 5812 5812
5751 5754 5756 5758 5760 5762 5764 5766 5768 5769 5771 5772 5774 5776 5778 5781 5784 5786 5788 5791 5793 5795 5796 5798 5799 5800 5801 5802 5803 5804 5805 5805 5806 5806 5807 5807 5807 5807 5807 5807 5806 5806 5805
5741 5744 5746 5749 5751 5753 5755 5757 5758 5760 5761 5762 5764 5767 5769 5772 5774 5777 5779 5782 5784 5786 5788 5790 5791 5792 5793 5794 5795 5796 5797 5798 5798 5799 5799 5799 5799 5799 5799 5799 5798 5798 5798
5730 5733 5736 5738 5741 5743 5745 5747 5748 5750 5751 5752 5754 5757 5760 5762 5765 5768 5770 5772 5775 5776 5779 5780 5782 5783 5785 5786 5787 5788 5788 5789 5790 5790 5791 5791 5791 5791 5791 5791 5790 5790 5790
5719 5722 5725 5727 5730 5732 5734 5736 5738 5739 5741 5742 5744 5747 5750 5753 5756 5758 5760 5763 5765 5767 5769 5771 5772 5774 5775 5776 5777 5778 5779 5780 5781 5781 5782 5782 5782 5782 5782 5782 5781 5781 5781
5707 5711 5713 5715 5718 5721 5723 5725 5727 5728 5730 5732 5734 5736 5739 5742 5745 5748 5750 5753 5755 5756 5758 5760 5762 5764 5765 5766 5768 5768 5769 5771 5771 5772 5772 5772 5773 5772 5772 5772 5772 5771 5771
5695 5698 5701 5704 5707 5709 5711 5713 5715 5717 5719 5721 5723 5726 5728 5731 5734 5737 5740 5742 5744 5746 5748 5749 5751 5753 5754 5756 5757 5758 5759 5760 5761 5762 5762 5762 5762 5762 5763 5762 5762 5762 5761
5683 5686 5689 5692 5695 5697 5699 5701 5703 5705 5707 5710 5712 5715 5717 5720 5722 5725 5729 5731 5733 5735 5737 5738 5740 5742 5743 5744 5746 5747 5748 5749 5750 5751 5751 5752 5752 5752 5752 5752 5752 5752 5751
5671 5674 5677 5679 5682 5684 5686 5688 5691 5693 5695 5698 5700 5703 5706 5708 5711 5713 5716 5719 5721 5724 5725 5726 5728 5730 5731 5733 5734 5735 5737 5737 5738 5739 5740 5740 5741 5741 5741 5741 5741 5741 5740
5659 5662 5664 5667 5669 5671 5674 5676 5678 5680 5683 5685 5688 5691 5693 5696 5698 5701 5704 5706 5709 5712 5713 5715 5716 5718 5719 5721 5722 5723 5724 5726 5726 5727 5728 5728 5729 5729 5729 5729 5729 5729 5729
5646 5648 5650 5653 5655 5658 5660 5663 5665 5667 5670 5673 5675 5678 5681 5683 5686 5688 5691 5694 5696 5699 5701 5703 5704 5705 5706 5708 5709 5710 5712 5713 5714 5715 5715 5716 5716 5717 5717 5717 5717 5717 5717
5632 5634 5636 5639 5641 5643 5646 5649 5651 5654 5656 5659 5662 5665 5667 5670 5672 5675 5678 5680 5683 5686 5689 5691 5692 5693 5693 5695 5697 5698 5699 5700 5701 5702 5702 5703 5703 5703 5704 5704 5704 5704 5704
5618 5620 5622 5624 5627 5629 5632 5635 5637 5640 5642 5645 5648 5652 5654 5657 5660 5662 5664 5667 5669 5672 5675 5678 5679 5680 5681 5682 5683 5685 5686 5687 5688 5689 5689 5690 5690 5690 5690 5690 5690 5690 5690
5604 5606 5608 5610 5613 5615 5618 5621 5623 5626 5629 5632 5635 5638 5641 5644 5647 5649 5651 5653 5656 5658 5661 5664 5666 5667 5668 5669 5671 5672 5673 5674 5675 5675 5676 5676 5676 5677 5677 5677 5677 5677 5677
5589 5591 5594 5596 5599 5601 5604 5607 5610 5612 5615 5618 5621 5624 5628 5630 5633 5636 5638 5640 5642 5645 5647 5650 5652 5654 5655 5656 5657 5658 5659 5661 5661 5662 5662 5662 5663 5663 5663 5664 5664 5664 5664
5575 5577 5579 5582 5585 5588 5590 5593 5596 5598 5602 5605 5608 5611 5614 5616 5619 5622 5624 5626 5628 5631 5633 5635 5638 5640 5641 5642 5643 5645 5646 5646 5647 5648 5648 5649 5649 5649 5650 5650 5650 5650 5650
5561 5563 5566 5568 5570 5573 5576 5578 5581 5585 5588 5591 5594 5597 5599 5602 5605 5608 5610 5612 5614 5616 5618 5620 5623 5625 5626 5628 5629 5631 5632 5632 5633 5633 5634 5634 5635 5635 5636 5636 5637 5637 5636
5547 5549 5551 5554 5556 5558 5561 5564 5567 5570 5573 5577 5580 5582 5585 5588 5590 5593 5595 5597 5599 5601 5603 5605 5608 5610 5611 5613 5615 5616 5617 5618 5618 5618 5619 5620 5621 5621 5621 5621 5622 5622 5622
5534 5536 5538 5540 5542 5544 5546 5548 5551 5555 5558 5562 5565 5568 5570 5573 5575 5577 5580 5582 5584 5586 5588 5590 5592 5594 5596 5597 5598 5599 5601 5602 5604 5605 5604 5605 5605 5606 5606 5607 5607 5607 5606
5521 5522 5524 5526 5528 5530 5532 5533 5536 5539 5543 5546 5550 5553 5555 5558 5560 5562 5564 5566 5568 5570 5572 5574 5576 5578 5580 5581 5582 5583 5584 5585 5587 5587 5587 5589 5589 5590 5590 5591 5591 5591 5591
5508 5509 5511 5513 5515 5516 5517 5519 5521 5524 5528 5532 5535 5537 5540 5542 5544 5546 5548 5550 5553 5554 5556 5559 5561 5563 5563 5563 5565 5566 5567 5569 5570 5571 5570 5573 5574 5574 5574 5574 5575 5574 5574
5494 5496 5497 5499 5501 5503 5504 5505 5507 5510 5514 5518 5520 5523 5525 5527 5529 5530 5533 5536 5538 5539 5540 5542 5544 5546 5547 5548 5548 5550 5551 5552 5554 5555 5554 5556 5557 5557 5558 5558 5558 5557 5557
5481 5483 5484 5485 5487 5489 5491 5492 5494 5497 5501 5504 5506 5508 5510 5512 5514 5514 5517 5520 5523 5524 5525 5527 5528 5530 5531 5532 5533 5534 5535 5536 5537 5539 5539 5539 5540 5539 5542 5542 5541 5541 5540